{"data":{"norad_id":66258,"epoch":"2026-09-20T19:40:38.216928Z","epoch_age_seconds":69044,"freshness":"FRESH","line1":"1 66258U 25245AA  26263.81988677  .00006984  00000+0  21772-3 0  9996","line2":"2 66258  53.1580  95.9845 0001475 302.0302  58.0557 15.34389764 51150","mean_motion":15.34389764,"eccentricity":0.0001475,"inclination_deg":53.158,"raan_deg":95.9845,"arg_perigee_deg":302.0302,"mean_anomaly_deg":58.0557,"bstar":0.00021772,"rev_number":5115,"period_min":93.848384144982,"perigee_km":461.72463550245,"apogee_km":463.7426923483,"semimajor_km":6840.8706639254,"source":"CELESTRAK","updated_at":"2026-09-21T09:00:35.850969Z"}}